Regional Weather Roundup
Issued by NWS Newport/Morehead, NC

Current Version | Previous Version | Graphics & Text | Print | Product List | Glossary On
Versions: 1 2 3 4 5 6 7 8 9 10 11 12 13 14 15 16 17 18 19 20 21 22 23 24 25 26 27 28 29 30 31 32 33 34 35 36 37 38 39 40 41 42 43 44 45 46 47 48 49 50
000 ASUS42 KMHX 040813 RWRMHX WEATHER ROUNDUP FOR EASTERN NORTH CAROLINA NATIONAL WEATHER SERVICE NEWPORT/MOREHEAD CITY NC 400 AM EDT SAT JUL 04 2015 NOTE: "FAIR" INDICATES FEW OR NO CLOUDS BELOW 12,000 FEET WITH NO SIGNIFICANT WEATHER AND/OR OBSTRUCTIONS TO VISIBILITY NCZ015>017-031-032-045>047-102-103-040900- NORTH COAST CITY SKY/WX TMP DP RH WIND PRES REMARKS EDENTON MOCLDY 75 71 86 SW17 29.87F ELIZABETH CITY PTCLDY 75 72 90 SW13 29.86F KITTY HAWK PTSUNNY 75 73 93 SW12G18 29.87S MANTEO MOCLDY 75 73 92 W14G20 29.89S $$ NCZ045>047-081-094-103-104-040900- CENTRAL COAST CITY SKY/WX TMP DP RH WIND PRES REMARKS FRISCO LGT RAIN 76 70 82 W16G29 29.92F SWANQUARTER N/A 77 N/A N/A SW10G26 29.88R $$ NCZ095-097-098-100-101-040900- SOUTHERN COAST CITY SKY/WX TMP DP RH WIND PRES REMARKS BEAUFORT CLEAR 80 73 79 SW12G28 29.93F CEDAR ISLAND N/A 79 N/A N/A S12G25 29.97S JACKSONVILLE NOT AVBL PINEY ISLAND CLOUDY N/A N/A N/A SW16 29.92F WILMINGTON PTCLDY 77 72 84 SW9 29.95F $$ NCZ011>013-027>030-043-044-078>080-089-090>093-098-040900- COASTAL PLAIN CITY SKY/WX TMP DP RH WIND PRES REMARKS AHOSKIE PTCLDY N/A N/A N/A CALM 29.87R HAZE CLINTON PTCLDY 73 71 92 CALM 29.94R ELIZABETHTOWN CLEAR 74 70 86 SW7 29.95R GOLDSBORO PTCLDY 74 71 91 SW6 29.90R FOG GREENVILLE PTCLDY 73 72 94 W6 29.93R HAVELOCK CLEAR 74 68 81 SW12 29.94F KENANSVILLE CLEAR 73 69 88 SW3 29.95R KINSTON PTCLDY 76 70 81 SW6 29.92S NEW BERN CLOUDY 74 69 85 SW8 29.94S RICHLANDS PTCLDY 72 64 78 SW7 29.94S ROCKY MOUNT PTCLDY 73 70 90 SW8 29.90S WASHINGTON MOCLDY 74 71 91 SW8 29.90F WHITEVILLE CLEAR 73 69 89 SW6 29.96R $$ AMZ130-135-150-152-154-156-158-170-250-252-270-ANZ085-086-088-633-658-670-040900- MARINE OBSERVATIONS STATION/POSITION TIME TEMP WIND PRES WAVE SWELL AIR SEA DIR/SP/G HT/PER HT/PER (UTC) (F) (DEG/KT/KT) (MB) (FT/S) (FT/S) CHESAPEAKE LIGHT 0800 76 220/ 16/ 18 1010.4 64 E VA BEACH 0750 78 77 220/ 10/ 14 1010.6 4/ 7 3/ 7 DUCK 0700 77 75 240/ 14/ 20 1010.6 2 E DUCK 0711 77 N/A 2/14 2/14 OREGON INLET 0700 77 72 220/ 19/ 22 1011.9 13E OREGON INLT 0800 69 N/A 5/ 7 HATTERAS CG 0700 78 77 240/ 13/ 21 1013.0 DIAMOND BUOY 0750 81 81 240/ 27/ 31 1012.5 8/ 7 2/15 CAPE LOOKOUT 0800 80 240/ 14/ 21 1013.4 BEAUFORT LAB 0700 80 80 240/ 10/ 21 1013.4 30 SE NEW RVR IN 0708 80 79 240/ 19/ 25 1014.7 27 SE WRIGHTSVLE 0700 80 240/ 19/ 23 N/A 5 SE WRIGHTSVLE 0708 80 78 240/ 17/ 23 1014.0 225 S CAPE HAT 0750 81 80 240/ 14/ 17 1018.8 5/ 6 2/ 8 41 SE CHARLESTON 0750 82 81 230/ 19/ 23 1016.2 6/ 6 2/15 $$

USA.gov is the U.S. government's official web portal to all federal, state and local government web resources and services.